| time (UTC) | temp C | wind direction | speed KPH | gust KPH | rain 1hr cm | rain 24hr cm | rain mn cm | humidity % | barometer mb |
| 20260502194700 | 7 | 348 | 6.4 | 14.5 | 0.00 | 0.00 | 0.00 | 44 | 1016.3 |
| 20260502191656 | 6 | 285 | 6.4 | 14.5 | 0.00 | 0.00 | 0.00 | 42 | 1016.5 |
| 20260502184515 | 7 | 290 | 9.7 | 17.7 | 0.00 | 0.00 | 0.00 | 40 | 1016.7 |
| 20260502181516 | 7 | 221 | 1.6 | 12.9 | 0.00 | 0.00 | 0.00 | 42 | 1016.9 |
| 20260502180154 | 7 | 297 | 6.4 | 14.5 | 0.00 | 0.00 | 0.00 | 42 | 1017.0 |
| 20260502123004 | 2 | 335 | 0.0 | 4.8 | 0.00 | 0.08 | 0.00 | 80 | 1017.4 |
| 20260502114658 | 1 | 276 | 0.0 | 4.8 | 0.00 | 0.08 | 0.00 | 88 | 1017.1 |
| 20260502111504 | 0 | 63 | 0.0 | 0.0 | 0.00 | 0.08 | 0.00 | 91 | 1016.9 |
| 20260502110006 | 0 | 63 | 0.0 | 0.0 | 0.00 | 0.08 | 0.00 | 90 | 1016.8 |
| 20260502104507 | 0 | 63 | 0.0 | 0.0 | 0.00 | 0.08 | 0.00 | 90 | 1016.7 |
| 20260502071507 | 2 | 63 | 0.0 | 0.0 | 0.00 | 0.08 | 0.00 | 80 | 1016.2 |
| 20260502060014 | 2 | 94 | 0.0 | 0.0 | 0.00 | 0.08 | 0.00 | 80 | 1016.6 |
| 20260502050013 | 2 | 92 | 0.0 | 0.0 | 0.00 | 0.08 | 0.00 | 76 | 1016.5 |
| 20260502043006 | 3 | 72 | 0.0 | 3.2 | 0.00 | 0.08 | 0.00 | 75 | 1016.1 |
| 20260502030018 | 5 | 321 | 0.0 | 9.7 | 0.00 | 0.08 | 0.08 | 61 | 1015.4 |
| 20260502011516 | 6 | 331 | 1.6 | 8.0 | 0.00 | 0.08 | 0.08 | 61 | 1014.8 |
| 20260502004514 | 6 | 293 | 3.2 | 11.3 | 0.00 | 0.08 | 0.08 | 60 | 1014.7 |
| 20260501234648 | 6 | 325 | 3.2 | 12.9 | 0.00 | 0.08 | 0.08 | 61 | 1014.3 |
| 20260501231656 | 6 | 338 | 1.6 | 12.9 | 0.00 | 0.08 | 0.08 | 61 | 1014.1 |
| 20260501230142 | 7 | 24 | 3.2 | 6.4 | 0.00 | 0.08 | 0.08 | 64 | 1014.2 |